Location: Evergreen Manor
(41.4083°N, 81.4939°W)
Time: 21:03:30
(UTC+00:00)

Cosmos 1867 - Pass Details

Date: 11 December 2019
Orbit: 777 x 799 km, 65.0° (Epoch: 22 January)

Event Time Altitude Azimuth Distance (km) Brightness Sun altitude
Rises 00:47:17 0° 324° (NW) 3,311 7.2 -31.2°
Reaches altitude 10° 00:49:44 10° 321° (NW) 2,376 6.4 -31.6°
Enters shadow 00:53:38 45° 300° (WNW) 1,079 4.5 -32.4°
